[[{"header":{"parameterUnit":"m.s-1","parameterCategory":2,"la1":30.2991,"la2":30.254,"lo1":-89.0895,"lo2":-89.0444,"dy":0.0017,"dx":0.0017,"nx":28,"ny":28,"refTime":"2023-10-08T21:00:00:Z","depth":"0","parameterNumber":2,"parameterNumberName":"U-component_of_CURRENTS"},"data":[0,0,0,0,0,0,0,0,0,0,0,0,0,0,0,0,0,0,0,0,0,0,0,0,0,0,0,0,0,0,0,0,0,0,0,0,0,0,0,0,0,0,0,0,0,0,0,0,0,0,0,0,0,0,0,0,0,0,0.205,0.205,0,0.2011,0.201,0.201,0.1977,0.1976,0.1976,0.1976,0.1917,0.1916,0.1914,0,0,0,0,0,0,0,0,0,0,0,0,0,0.2082,0.2082,0.205,0.205,0.2049,0.2011,0.201,0.201,0.1977,0.1976,0.1976,0.1976,0.1917,0.1916,0.1914,0,0,0,0,0,0,0,0,0,0,0,0,0,0.2056,0.2081,0.205,0.203,0.2028,0.2011,0.201,0.201,0.1977,0.1976,0.1976,0.1976,0.1918,0.1916,0.1914,0.1905,0,0,0.1907,0.1906,0,0,0,0,0,0,0,0,0.2058,0.2055,0.2033,0.2031,0.2029,0.2,0.2,0.1974,0.1977,0.1994,0.1976,0.1976,0.1945,0.194,0.1931,0.1903,0.19,0.1907,0.1906,0.1905,0.1904,0,0,0,0,0,0,0,0.2059,0.2056,0.2032,0.2033,0.2031,0.2018,0.2014,0.1995,0.1969,0.1992,0.199,0.199,0.1943,0.1933,0.1929,0.1899,0.1907,0.1905,0.1904,0.1903,0.1976,0.1979,0,0,0,0,0,0,0.207,0.2058,0.2034,0.2031,0.2046,0.2018,0.2014,0.2008,0.1969,0.1964,0.199,0.1988,0.1936,0.1931,0.1927,0.2002,0.1905,0.1903,0.1902,0.1973,0.1977,0.198,0,0,0,0,0,0,0.207,0.2068,0.2035,0.2046,0.2041,0.2018,0.2012,0.2007,0.2007,0.1968,0.1962,0.1996,0.1936,0.193,0.194,0.1996,0.1902,0.19,0.1969,0.1974,0.1979,0.2096,0,0,0,0,0,0,0.2071,0.2068,0.2067,0.2046,0.2041,0.204,0.2012,0.2007,0.2007,0.2005,0.1971,0.1965,0.1935,0.1943,0.1938,0.1991,0.1898,0.1965,0.1971,0.1977,0.2088,0.2104,0.2118,0,0,0,0,0,0.2073,0.2066,0.2067,0.2064,0.204,0.2041,0.2038,0.2019,0.2008,0.2016,0.2006,0.1966,0.1979,0.1943,0.1936,0.1991,0.1962,0.1969,0.1977,0.2082,0.2101,0.2118,0,0,0,0,0,0,0.2062,0.2062,0.2062,0.2052,0.2058,0.2037,0.2033,0.2029,0.2025,0.2021,0.1989,0.1983,0.2022,0.1991,0.1953,0.2035,0.1971,0.1978,0.2054,0.2072,0.2087,0.2017,0.1896,0,0,0,0,0,0.2066,0.207,0.207,0.2063,0.2067,0.2056,0.2054,0.2048,0.2041,0.2038,0.2018,0.2016,0.2045,0.2044,0.2047,0.2071,0.2062,0.2111,0.2126,0.2139,0.2081,0.2168,0.2185,0.2004,0.2004,0.2004,0,0,0.2055,0.206,0.2057,0.2064,0.206,0.2068,0.2053,0.2055,0.2067,0.2032,0.2038,0.2061,0.2066,0.2111,0.2126,0.2089,0.2197,0.2148,0.2159,0.2092,0.2177,0.2194,0.2209,0.2009,0.2008,0.2007,0,0,0.2042,0.2047,0.2049,0.2063,0.2075,0.2076,0.2086,0.2081,0.2087,0.2103,0.2112,0.2158,0.216,0.2191,0.2207,0.2302,0.2279,0.2329,0.2335,0.2424,0.2438,0.245,0.2502,0.2517,0.233,0.2331,0.2331,0,0.2029,0.2033,0.205,0.2062,0.2072,0.2087,0.2094,0.2108,0.211,0.2128,0.2115,0.2188,0.2194,0.228,0.2313,0.2332,0.2362,0.2268,0.2441,0.2453,0.2463,0.2512,0.2528,0.2337,0.2336,0.2336,0.2335,0,0.2023,0.2032,0.2035,0.2062,0.2079,0.2089,0.2118,0.2141,0.2154,0.217,0.2246,0.2274,0.2312,0.2361,0.2348,0.2454,0.2447,0.246,0.2388,0.2488,0.2535,0.2549,0.2347,0.2344,0.2342,0.2341,0,0,0.1975,0.2021,0.2022,0.2038,0.2082,0.2091,0.2135,0.2178,0.2211,0.2245,0.2292,0.2368,0.2388,0.2405,0.2448,0.2503,0.2628,0.2498,0.25,0.2532,0.2806,0.2856,0.2876,0.2686,0.2689,0.269,0.2823,0,0.1963,0.1985,0.2016,0.204,0.2054,0.21,0.2138,0.2188,0.2234,0.2285,0.2354,0.2412,0.2414,0.2453,0.2519,0.2595,0.2663,0.2587,0.2712,0.2713,0.2735,0.2894,0.2923,0.3048,0.2836,0.2838,0.284,0,0.1947,0.1968,0.1985,0.2038,0.2048,0.2068,0.2142,0.218,0.2274,0.231,0.2389,0.2439,0.2533,0.252,0.2683,0.264,0.2708,0.276,0.2769,0.2759,0.279,0.2907,0.308,0.2945,0.2861,0.2859,0.2858,0,0.1907,0.1947,0.1961,0.1978,0.2039,0.206,0.2096,0.2184,0.2236,0.2328,0.238,0.2493,0.256,0.2662,0.2766,0.2739,0.2932,0.2929,0.3038,0.3041,0.3051,0.3052,0.3082,0.3038,0.3038,0.3037,0.3037,0,0.1884,0.1893,0.194,0.1947,0.1971,0.2027,0.2073,0.2129,0.223,0.2299,0.2388,0.248,0.2598,0.2727,0.28,0.2973,0.2984,0.3042,0.3093,0.31,0.3104,0.2969,0.2878,0.3042,0.3041,0.304,0.3039,0,0.1833,0.1865,0.1881,0.1935,0.195,0.1965,0.2048,0.2096,0.2191,0.2288,0.2322,0.2495,0.2675,0.2803,0.298,0.3039,0.3106,0.3232,0.3211,0.3256,0.3218,0.3134,0.3042,0.2951,0.3376,0.3378,0.338,0,0.1807,0.181,0.1854,0.1861,0.1879,0.1915,0.195,0.2055,0.2118,0.2308,0.2359,0.2566,0.2718,0.3007,0.318,0.3363,0.3198,0.345,0.34,0.3226,0.3171,0.2965,0.2877,0.3476,0.3478,0.348,0.3482,0,0.1751,0.1766,0.1778,0.1797,0.1821,0.186,0.192,0.1976,0.2111,0.2223,0.2403,0.2546,0.2872,0.31,0.3345,0.3467,0.3285,0.3498,0.3347,0.3268,0.3016,0.295,0.3335,0.3501,0.3499,0.3497,0.3496,0.3496,0.1697,0.1691,0.1707,0.1723,0.1752,0.1795,0.1825,0.193,0.2044,0.2225,0.2389,0.2614,0.2957,0.3349,0.3439,0.3588,0.343,0.352,0.3441,0.3251,0.3126,0.3527,0.3731,0.3731,0.373,0.373,0.373,0,0.1616,0.1623,0.1635,0.1655,0.1665,0.1708,0.1797,0.1847,0.1972,0.2187,0.2367,0.2761,0.3052,0.332,0.3614,0.3527,0.3371,0.3401,0.3107,0.303,0.3456,0.3424,0.3536,0.3536,0.3537,0.3537,0.3537,0.3537,0.1568,0.1548,0.1564,0.1556,0.1577,0.1595,0.1638,0.1747,0.1897,0.2158,0.2389,0.2612,0.2938,0.3242,0.3345,0.3342,0.3023,0.2943,0.2772,0.3072,0.3074,0.3075,0.3023,0.305,0.3049,0.2297,0.2291,0.2286]},{"header":{"parameterUnit":"m.s-1","parameterCategory":2,"la1":30.2991,"la2":30.254,"lo1":-89.0895,"lo2":-89.0444,"dy":0.0017,"dx":0.0017,"nx":28,"ny":28,"refTime":"2023-10-08T21:00:00:Z","depth":"0","parameterNumber":3,"parameterNumberName":"V-component_of_CURRENTS"},"data":[0,0,0,0,0,0,0,0,0,0,0,0,0,0,0,0,0,0,0,0,0,0,0,0,0,0,0,0,0,0,0,0,0,0,0,0,0,0,0,0,0,0,0,0,0,0,0,0,0,0,0,0,0,0,0,0,0,0,0.0073,0.0072,0,-0.0071,-0.0074,-0.0076,-0.0209,-0.021,-0.0211,-0.0212,-0.0345,-0.0347,-0.0349,0,0,0,0,0,0,0,0,0,0,0,0,0,0.0102,0.0102,0.0073,0.0072,0.0071,-0.0071,-0.0074,-0.0076,-0.0209,-0.021,-0.0211,-0.0213,-0.0344,-0.0347,-0.035,0,0,0,0,0,0,0,0,0,0,0,0,0,0.0032,0.0102,0.0074,-0.0009,-0.0017,-0.0071,-0.0074,-0.0077,-0.0208,-0.021,-0.0212,-0.0213,-0.0343,-0.0346,-0.035,-0.0339,0,0,-0.0361,-0.0363,0,0,0,0,0,0,0,0,0.0036,0.003,0.0005,-0.0003,-0.0012,-0.0119,-0.0112,-0.0162,-0.0208,-0.0141,-0.0212,-0.0214,-0.0263,-0.0274,-0.0305,-0.0345,-0.0351,-0.0362,-0.0364,-0.0366,-0.0367,0,0,0,0,0,0,0,0.0041,0.0035,0.001,0.0004,-0.0007,-0.0084,-0.0095,-0.0123,-0.0195,-0.0147,-0.0156,-0.0163,-0.0269,-0.0301,-0.0309,-0.0353,-0.0362,-0.0365,-0.0367,-0.0369,-0.0373,-0.0371,0,0,0,0,0,0,0.0079,0.0041,0.0015,0.0007,0.0014,-0.0082,-0.0095,-0.0088,-0.0195,-0.0212,-0.0161,-0.0169,-0.0294,-0.0304,-0.0314,-0.028,-0.0366,-0.0369,-0.0371,-0.0375,-0.0373,-0.037,0,0,0,0,0,0,0.0081,0.0079,0.0021,0.0023,0.0011,-0.0079,-0.0071,-0.0089,-0.0117,-0.0205,-0.0223,-0.0168,-0.0296,-0.0309,-0.0338,-0.0287,-0.0371,-0.0374,-0.0378,-0.0375,-0.0372,-0.0229,0,0,0,0,0,0,0.0082,0.0081,0.0096,0.0027,0.0013,0.0011,-0.0069,-0.0091,-0.0116,-0.0127,-0.0216,-0.0231,-0.0298,-0.0332,-0.0341,-0.0294,-0.0377,-0.038,-0.0376,-0.0373,-0.0237,-0.0222,-0.0209,0,0,0,0,0,0.0084,0.011,0.0098,0.0094,0.0039,0.0013,-0.0001,-0.0077,-0.0114,-0.0111,-0.0182,-0.0228,-0.0313,-0.0334,-0.0345,-0.0298,-0.0382,-0.0377,-0.0373,-0.0243,-0.0225,-0.0209,0,0,0,0,0,0,0.012,0.0098,0.0082,0.0099,0.0073,-0.0007,-0.0014,-0.0056,-0.0111,-0.0123,-0.0213,-0.0232,-0.0239,-0.0282,-0.0303,-0.0286,-0.0349,-0.0347,-0.0246,-0.023,-0.0216,-0.0201,-0.038,0,0,0,0,0,0.0145,0.0163,0.0127,0.0141,0.0137,0.007,0.0049,0.0008,-0.0047,-0.0075,-0.0133,-0.0188,-0.0227,-0.0241,-0.0286,-0.0273,-0.0327,-0.0245,-0.0231,-0.0219,-0.0214,-0.0252,-0.0242,-0.0355,-0.0355,-0.0355,0,0,0.016,0.0153,0.016,0.0152,0.012,0.0124,0.0051,0.004,0.0039,-0.0075,-0.0091,-0.0145,-0.0215,-0.0216,-0.0219,-0.0246,-0.0213,-0.0213,-0.0203,-0.0204,-0.0246,-0.0235,-0.0226,-0.0352,-0.0352,-0.0353,0,0,0.0199,0.0203,0.0228,0.0222,0.0204,0.0172,0.0182,0.013,0.0105,0.0093,0.0009,-0.0012,-0.0068,-0.0107,-0.0135,-0.0062,-0.0145,-0.0067,0.0022,-0.0014,-0.0006,0.0001,-0.0046,-0.0044,-0.0051,-0.0051,-0.0051,0,0.0214,0.0246,0.0229,0.0252,0.0252,0.0206,0.0228,0.0207,0.0151,0.014,0.0112,0.0033,-0.0013,-0.0026,-0.0001,-0.0028,-0.0077,-0.0037,0.0003,0.0009,0.0014,-0.0037,-0.0037,-0.0044,-0.0045,-0.0045,-0.0046,0,0.0268,0.0294,0.0312,0.0332,0.0334,0.0349,0.033,0.0331,0.0306,0.0274,0.0262,0.0196,0.0143,0.0147,0.0093,0.0114,0.0059,0.0018,-0.0039,0.0034,-0.0024,-0.0027,-0.0033,-0.0036,-0.0038,-0.004,0,0,0.0292,0.0339,0.0344,0.0368,0.0379,0.0384,0.0411,0.0411,0.0416,0.0394,0.0391,0.0361,0.0316,0.0283,0.0226,0.0216,0.022,0.0144,0.0139,0.0097,0.0124,0.0086,0.0078,0.0177,0.0177,0.0177,0.0073,0,0.0333,0.0394,0.0406,0.046,0.0489,0.0478,0.0502,0.0501,0.0485,0.0477,0.044,0.0412,0.0371,0.0345,0.0334,0.0229,0.0217,0.0251,0.0059,0.0054,0.001,0.0076,0.0185,0.0101,0.0069,0.0069,0.0068,0,0.038,0.0415,0.0476,0.0525,0.0536,0.0561,0.0584,0.0599,0.0587,0.0573,0.0552,0.0497,0.0472,0.0429,0.0321,0.0336,0.0252,0.0186,0.0179,0.009,0.0011,0.0021,0.0096,-0.0016,0.0063,0.0063,0.0064,0,0.0401,0.0464,0.0515,0.0533,0.0579,0.0602,0.0621,0.0625,0.064,0.0624,0.062,0.0568,0.053,0.0438,0.0311,0.0305,0.0183,0.0146,0.0037,0.0031,0.0061,0.0058,0.0006,0.0086,0.0086,0.0087,0.0087,0,0.0441,0.0482,0.053,0.0558,0.0615,0.0633,0.0679,0.0687,0.0695,0.0714,0.0664,0.0659,0.0531,0.0442,0.0328,0.0174,0.0188,0.0062,0.0011,0.0114,0.0117,-0.0034,-0.0142,0.0083,0.0084,0.0084,0.0085,0,0.0463,0.0493,0.0555,0.061,0.063,0.0669,0.0723,0.075,0.075,0.077,0.0767,0.0713,0.0608,0.0469,0.0305,0.0187,-0.0018,-0.0012,0.0113,0.0079,-0.013,-0.0234,-0.0359,-0.0449,-0.0148,-0.015,-0.0151,0,0.0482,0.0516,0.0589,0.0625,0.0654,0.0709,0.0748,0.0775,0.0805,0.0807,0.082,0.0736,0.0704,0.0452,0.0266,0.0064,-0.0065,-0.0024,-0.0004,-0.0115,-0.0269,-0.0298,-0.0367,0.0091,0.0092,0.0093,0.0094,0,0.0518,0.0541,0.0591,0.066,0.0712,0.0776,0.0832,0.0865,0.0891,0.0908,0.0924,0.0905,0.0713,0.0588,0.0304,0.0155,-0.0087,-0.002,-0.0149,-0.0094,-0.0114,-0.0232,0.011,0.01,0.01,0.0099,0.0099,0.0098,0.0541,0.0579,0.0638,0.0704,0.0766,0.084,0.0892,0.0953,0.1012,0.1073,0.1042,0.1084,0.0914,0.0578,0.0311,-0.0021,-0.0082,-0.0101,-0.0222,-0.0244,-0.0307,0.0034,-0.0032,-0.0033,-0.0034,-0.0036,-0.0036,0,0.0567,0.061,0.0677,0.0761,0.083,0.0858,0.0947,0.1007,0.1089,0.119,0.1238,0.1297,0.1,0.0679,0.0237,-0.0106,-0.0214,-0.0307,-0.029,-0.0361,-0.0043,-0.0006,-0.0051,-0.005,-0.005,-0.005,-0.005,-0.005,0.0584,0.0644,0.0681,0.0798,0.0858,0.0952,0.1006,0.1103,0.1205,0.1398,0.1543,0.164,0.156,0.064,-0.0046,-0.0283,-0.0539,-0.056,-0.0787,-0.0523,-0.0511,-0.0499,-0.0484,-0.0628,-0.0629,-0.0957,-0.0961,-0.0964]}],[{"header":{"parameterUnit":"m.s-1","parameterCategory":2,"la1":30.2991,"la2":30.254,"lo1":-89.0895,"lo2":-89.0444,"dy":0.0017,"dx":0.0017,"nx":28,"ny":28,"refTime":"2023-10-08T21:00:00:Z","depth":"2","parameterNumber":2,"parameterNumberName":"U-component_of_CURRENTS"},"data":[0,0,0,0,0,0,0,0,0,0,0,0,0,0,0,0,0,0,0,0,0,0,0,0,0,0,0,0,0,0,0,0,0,0,0,0,0,0,0,0,0,0,0,0,0,0,0,0,0,0,0,0,0,0,0,0,0,0,0.1961,0.1961,0,0.1965,0.1964,0.1964,0.1953,0.1953,0.1953,0.1953,0.1897,0.1896,0.1895,0,0,0,0,0,0,0,0,0,0,0,0,0,0.1953,0.1953,0.1961,0.1961,0.1961,0.1965,0.1964,0.1964,0.1953,0.1953,0.1953,0.1953,0.1898,0.1896,0.1895,0,0,0,0,0,0,0,0,0,0,0,0,0,0.1954,0.1953,0.1961,0.1958,0.1958,0.1965,0.1964,0.1964,0.1953,0.1953,0.1953,0.1953,0.1898,0.1896,0.1894,0.1886,0,0,0.1888,0.1887,0,0,0,0,0,0,0,0,0.1954,0.1954,0.1958,0.1958,0.1958,0.196,0.1941,0.1936,0.1954,0.1953,0.1953,0.1953,0.1914,0.1911,0.191,0.1883,0.1881,0.1888,0.1887,0.1886,0.1885,0,0,0,0,0,0,0,0.1954,0.1954,0.196,0.1958,0.1958,0.196,0.1959,0.194,0.1932,0.1953,0.1953,0.1957,0.1914,0.1912,0.1908,0.188,0.1888,0.1886,0.1885,0.1884,0.1892,0.1894,0,0,0,0,0,0,0.1958,0.1954,0.196,0.196,0.1958,0.196,0.1959,0.1958,0.1933,0.1931,0.1957,0.1956,0.1916,0.1911,0.1906,0.1932,0.1886,0.1884,0.1883,0.1891,0.1892,0.1894,0,0,0,0,0,0,0.1957,0.1958,0.196,0.1959,0.196,0.196,0.1959,0.1958,0.1957,0.1937,0.1933,0.1956,0.1915,0.1909,0.1908,0.1929,0.1883,0.1881,0.1889,0.1891,0.1893,0.196,0,0,0,0,0,0,0.1957,0.1958,0.1958,0.1959,0.196,0.1967,0.1959,0.1958,0.1961,0.196,0.1935,0.193,0.1915,0.1912,0.1907,0.1925,0.188,0.1887,0.189,0.1893,0.1956,0.1964,0.1971,0,0,0,0,0,0.1957,0.196,0.1958,0.1959,0.1961,0.1968,0.1968,0.1967,0.1961,0.1963,0.1959,0.1931,0.1925,0.1911,0.1905,0.1923,0.1886,0.1889,0.1892,0.1953,0.1963,0.1971,0,0,0,0,0,0,0.1966,0.1959,0.1957,0.1961,0.1966,0.1967,0.1972,0.1968,0.1966,0.1966,0.1944,0.1939,0.1952,0.1927,0.1913,0.1936,0.1903,0.1905,0.1951,0.196,0.1967,0.1986,0.1878,0,0,0,0,0,0.1967,0.1964,0.1964,0.197,0.1971,0.1971,0.1973,0.1973,0.1973,0.1971,0.1957,0.1951,0.196,0.1951,0.195,0.195,0.1973,0.1961,0.1969,0.1975,0.1987,0.2051,0.2067,0.1905,0.1905,0.1904,0,0,0.1977,0.1972,0.1972,0.1972,0.1974,0.198,0.1971,0.1979,0.1988,0.1964,0.1971,0.1976,0.1969,0.1986,0.1988,0.1965,0.2036,0.1979,0.1985,0.1994,0.2057,0.2072,0.2087,0.1907,0.1906,0.1906,0,0,0.1993,0.1987,0.1987,0.1987,0.1991,0.1992,0.1994,0.1995,0.1999,0.2008,0.2009,0.2031,0.2015,0.2033,0.2036,0.2082,0.2081,0.2075,0.2117,0.2179,0.2193,0.2206,0.2268,0.2286,0.207,0.207,0.207,0,0.2008,0.2003,0.1992,0.1993,0.2003,0.1997,0.2009,0.2012,0.2015,0.2031,0.2016,0.2055,0.2044,0.2093,0.2115,0.2099,0.2137,0.2081,0.2191,0.2203,0.2215,0.2276,0.2295,0.2073,0.2073,0.2073,0.2072,0,0.2018,0.2018,0.2022,0.2019,0.2027,0.2038,0.2042,0.2051,0.2055,0.2066,0.2112,0.212,0.2144,0.215,0.2145,0.2225,0.2227,0.2201,0.2169,0.2236,0.2295,0.2314,0.2079,0.2077,0.2076,0.2075,0,0,0.2049,0.2032,0.2035,0.2034,0.2042,0.2048,0.2073,0.21,0.2129,0.2137,0.2193,0.2218,0.2231,0.2239,0.2244,0.2296,0.2414,0.2288,0.229,0.2354,0.2568,0.2434,0.2441,0.2414,0.2417,0.2419,0.2581,0,0.2066,0.2064,0.2062,0.2076,0.2076,0.2087,0.2115,0.2139,0.2167,0.2214,0.2244,0.2296,0.226,0.2296,0.2341,0.2408,0.2464,0.2374,0.249,0.2494,0.2369,0.2457,0.2165,0.2272,0.2599,0.2602,0.2604,0,0.208,0.2073,0.2087,0.2097,0.2103,0.2119,0.2171,0.2196,0.2261,0.2291,0.2344,0.2372,0.2459,0.2419,0.2553,0.2501,0.2542,0.2582,0.2588,0.2451,0.2393,0.2255,0.2293,0.2634,0.2632,0.263,0.2628,0,0.2092,0.2095,0.2105,0.2107,0.212,0.2144,0.2165,0.2223,0.2255,0.2358,0.2401,0.2491,0.2545,0.2622,0.2675,0.264,0.2825,0.2779,0.2697,0.2689,0.2455,0.2419,0.288,0.288,0.2879,0.2879,0.2878,0,0.2104,0.2113,0.2107,0.2107,0.2133,0.2152,0.2204,0.2243,0.2317,0.2366,0.244,0.25,0.2602,0.2693,0.2739,0.2773,0.2871,0.2731,0.2727,0.2468,0.2433,0.2745,0.2727,0.2885,0.2883,0.2882,0.2881,0,0.2117,0.2112,0.2119,0.2129,0.2135,0.2157,0.2198,0.223,0.2313,0.2388,0.2429,0.2541,0.2668,0.2754,0.29,0.2832,0.2903,0.2885,0.2573,0.2526,0.2716,0.27,0.2828,0.2825,0.2822,0.282,0.2818,0,0.2123,0.2124,0.2126,0.212,0.2125,0.215,0.2163,0.2226,0.2258,0.2396,0.2427,0.2579,0.2612,0.276,0.2718,0.2769,0.29,0.2533,0.2388,0.2731,0.2715,0.2703,0.2691,0.2128,0.2121,0.2115,0.211,0,0.2129,0.2133,0.2125,0.2109,0.211,0.2114,0.2139,0.2151,0.2234,0.2284,0.2365,0.2409,0.249,0.2385,0.2424,0.241,0.2497,0.2406,0.2883,0.216,0.2076,0.2058,0.2069,0.2056,0.2061,0.2065,0.2068,0.207,0.2129,0.212,0.2095,0.2078,0.2074,0.2053,0.2032,0.2049,0.2063,0.2055,0.2176,0.2125,0.2103,0.198,0.1984,0.2003,0.2148,0.2058,0.2075,0.2099,0.1963,0.1875,0.1794,0.1798,0.1801,0.1804,0.1806,0,0.2087,0.207,0.2056,0.2007,0.1966,0.1999,0.1986,0.192,0.1878,0.1842,0.182,0.1574,0.1476,0.1584,0.147,0.1452,0.1427,0.1464,0.1414,0.1464,0.151,0.1344,0.1012,0.101,0.1009,0.1008,0,0,0.2057,0.2006,0.1986,0.1891,0.1871,0.1797,0.1773,0.1686,0.162,0.1419,0.1318,0.1266,0.1383,0.112,0.1102,0.1072,0.1265,0.1024,0.1635,0.1616,0.1661,0.18,0.1593,0,0,0,0,0]},{"header":{"parameterUnit":"m.s-1","parameterCategory":2,"la1":30.2991,"la2":30.254,"lo1":-89.0895,"lo2":-89.0444,"dy":0.0017,"dx":0.0017,"nx":28,"ny":28,"refTime":"2023-10-08T21:00:00:Z","depth":"2","parameterNumber":3,"parameterNumberName":"V-component_of_CURRENTS"},"data":[0,0,0,0,0,0,0,0,0,0,0,0,0,0,0,0,0,0,0,0,0,0,0,0,0,0,0,0,0,0,0,0,0,0,0,0,0,0,0,0,0,0,0,0,0,0,0,0,0,0,0,0,0,0,0,0,0,0,0.0164,0.0163,0,0.0076,0.0075,0.0074,0.0004,0.0003,0.0002,0.0002,-0.0097,-0.0099,-0.0101,0,0,0,0,0,0,0,0,0,0,0,0,0,0.0231,0.0231,0.0164,0.0163,0.0161,0.0076,0.0075,0.0073,0.0004,0.0003,0.0002,0.0001,-0.0096,-0.0098,-0.0101,0,0,0,0,0,0,0,0,0,0,0,0,0,0.0179,0.0231,0.0164,0.0117,0.0112,0.0076,0.0075,0.0073,0.0004,0.0003,0.0002,0.0001,-0.0095,-0.0098,-0.0101,-0.0099,0,0,-0.011,-0.0111,0,0,0,0,0,0,0,0,0.0182,0.0176,0.0125,0.012,0.0114,0.005,0.0062,0.0015,0.0004,0.0045,0.0002,0.0001,-0.0048,-0.0055,-0.0069,-0.0104,-0.0108,-0.011,-0.0112,-0.0114,-0.0114,0,0,0,0,0,0,0,0.0186,0.0179,0.0129,0.0124,0.0117,0.0086,0.0078,0.0053,0.0005,0.0041,0.0036,0.0027,-0.0051,-0.0066,-0.0072,-0.0109,-0.011,-0.0113,-0.0115,-0.0116,-0.0207,-0.0208,0,0,0,0,0,0,0.02,0.0183,0.0131,0.0126,0.0146,0.0086,0.0077,0.0071,0.0005,-0.0006,0.0028,0.0024,-0.006,-0.0068,-0.0076,-0.0103,-0.0114,-0.0116,-0.0118,-0.0207,-0.0207,-0.0208,0,0,0,0,0,0,0.0202,0.0197,0.0135,0.0152,0.0142,0.0086,0.008,0.007,0.0046,-0.0005,-0.0016,0.0014,-0.0062,-0.0072,-0.0109,-0.0107,-0.0118,-0.012,-0.0206,-0.0207,-0.0208,-0.0142,0,0,0,0,0,0,0.0204,0.0198,0.0196,0.0154,0.0142,0.0113,0.0081,0.0069,0.0043,0.0037,-0.002,-0.003,-0.0063,-0.0104,-0.0112,-0.0111,-0.0123,-0.0205,-0.0206,-0.0208,-0.0143,-0.014,-0.0138,0,0,0,0,0,0.0207,0.0204,0.0197,0.019,0.0143,0.0113,0.0104,0.0061,0.0043,0.0035,-0.0008,-0.0029,-0.0118,-0.0107,-0.0116,-0.0116,-0.0205,-0.0206,-0.0207,-0.0144,-0.0141,-0.0138,0,0,0,0,0,0,0.0219,0.0196,0.0187,0.0173,0.0148,0.0101,0.0088,0.0064,0.0024,0.0017,-0.0031,-0.0044,-0.0076,-0.0109,-0.0095,-0.0149,-0.0167,-0.017,-0.0116,-0.0113,-0.011,-0.0081,-0.0125,0,0,0,0,0,0.0228,0.0226,0.0195,0.0184,0.0176,0.0136,0.0118,0.0092,0.0053,0.0034,-0.0005,-0.0051,-0.0087,-0.011,-0.0145,-0.0169,-0.0184,-0.018,-0.0177,-0.0174,-0.0159,-0.0186,-0.0184,-0.0213,-0.0213,-0.0213,0,0,0.0228,0.0216,0.0213,0.0189,0.0166,0.0156,0.0122,0.0098,0.0087,0.0032,0.0001,-0.0038,-0.0091,-0.0122,-0.0139,-0.015,-0.0174,-0.0176,-0.0173,-0.0159,-0.0187,-0.0184,-0.0181,-0.0214,-0.0214,-0.0213,0,0,0.0233,0.0222,0.0225,0.0212,0.0187,0.0167,0.0164,0.0123,0.01,0.0072,0.0027,-0.0011,-0.0066,-0.0104,-0.0129,-0.0134,-0.0156,-0.0151,-0.0115,-0.0142,-0.0139,-0.0136,-0.0141,-0.0139,-0.0153,-0.0153,-0.0153,0,0.0232,0.0235,0.0218,0.0218,0.0213,0.0177,0.0179,0.0153,0.0102,0.0096,0.0069,-0.0005,-0.0056,-0.0085,-0.0096,-0.0125,-0.0135,-0.0117,-0.0135,-0.0133,-0.0131,-0.0137,-0.0136,-0.015,-0.0151,-0.0151,-0.0151,0,0.0241,0.0244,0.0243,0.024,0.0234,0.0227,0.0203,0.0188,0.0163,0.0139,0.0109,0.0043,0.0,-0.0028,-0.0065,-0.0082,-0.0089,-0.0122,-0.0132,-0.0124,-0.0131,-0.0131,-0.0146,-0.0147,-0.0148,-0.0149,0,0,0.0235,0.0249,0.0248,0.0264,0.025,0.0247,0.024,0.023,0.0238,0.0184,0.0193,0.011,0.0083,0.0051,-0.0001,-0.0031,-0.0039,-0.0067,-0.007,-0.0053,-0.0075,-0.009,-0.0091,-0.007,-0.007,-0.007,-0.0079,0,0.0245,0.0266,0.0269,0.029,0.0301,0.0288,0.0292,0.028,0.0265,0.0263,0.0204,0.0187,0.011,0.0098,0.0054,-0.0003,-0.0038,-0.0032,-0.0102,-0.0104,-0.0103,-0.0092,-0.0117,-0.0129,-0.0079,-0.0079,-0.0079,0,0.0253,0.0271,0.0299,0.0336,0.0342,0.0349,0.0373,0.0373,0.0364,0.0355,0.0328,0.029,0.0245,0.0177,0.0084,0.0095,0.0013,-0.004,-0.0043,-0.0077,-0.0119,-0.0135,-0.0131,-0.008,-0.008,-0.008,-0.008,0,0.0267,0.0295,0.0326,0.0333,0.0362,0.0378,0.0394,0.04,0.0421,0.0422,0.0448,0.0381,0.037,0.0263,0.0148,0.0117,0.0062,-0.0002,-0.0093,-0.0094,-0.014,-0.0145,-0.0079,-0.0079,-0.0079,-0.0079,-0.0079,0,0.0278,0.0302,0.0338,0.0352,0.04,0.0413,0.0463,0.0469,0.0501,0.0554,0.0499,0.0538,0.0391,0.0341,0.0204,0.008,0.0099,-0.0072,-0.0098,-0.0118,-0.0121,-0.0104,-0.0107,-0.008,-0.0079,-0.0079,-0.0079,0,0.0282,0.0302,0.0342,0.0386,0.0406,0.044,0.0509,0.055,0.0578,0.0652,0.0664,0.0661,0.0617,0.0472,0.0328,0.0169,0.004,-0.002,-0.0018,-0.0044,-0.0115,-0.0115,-0.0127,-0.0128,-0.0128,-0.0128,-0.0129,0,0.0286,0.0305,0.0366,0.0398,0.0418,0.0475,0.0524,0.0574,0.0637,0.0741,0.0793,0.079,0.0808,0.0612,0.0343,0.0118,0.0088,-0.0072,-0.0161,-0.0096,-0.012,-0.0119,-0.0118,-0.0192,-0.0193,-0.0194,-0.0194,0,0.0293,0.0313,0.0349,0.0413,0.0469,0.0545,0.0628,0.0698,0.0788,0.0891,0.1039,0.1073,0.0881,0.065,0.032,0.0159,-0.004,-0.0095,-0.002,-0.0176,-0.0159,-0.0182,-0.0179,-0.02,-0.02,-0.0199,-0.0199,-0.0199,0.0298,0.0324,0.0373,0.0435,0.0506,0.0618,0.0705,0.0835,0.099,0.1129,0.1159,0.1162,0.0859,0.0412,0.0193,-0.0058,-0.0065,-0.0213,-0.021,-0.0207,-0.0213,-0.0198,-0.0246,-0.0246,-0.0245,-0.0245,-0.0245,0,0.0304,0.0338,0.0396,0.0487,0.0576,0.0608,0.0778,0.091,0.1136,0.1169,0.1266,0.0955,0.0674,0.0396,-0.0005,-0.0243,-0.0257,-0.0289,-0.0286,-0.028,-0.0275,-0.0283,-0.0336,-0.0336,-0.0336,-0.0337,0,0,0.031,0.0356,0.039,0.0527,0.0599,0.0747,0.0855,0.1081,0.1165,0.1259,0.1173,0.0972,0.0645,0.0302,0.0022,-0.0144,-0.0149,-0.0168,-0.0083,-0.0041,-0.0032,-0.023,-0.0236,0,0,0,0,0]}],[{"header":{"parameterUnit":"m.s-1","parameterCategory":2,"la1":30.2991,"la2":30.254,"lo1":-89.0895,"lo2":-89.0444,"dy":0.0017,"dx":0.0017,"nx":28,"ny":28,"refTime":"2023-10-08T21:00:00:Z","depth":"4","parameterNumber":2,"parameterNumberName":"U-component_of_CURRENTS"},"data":[0,0,0,0,0,0,0,0,0,0,0,0,0,0,0,0,0,0,0,0,0,0,0,0,0,0,0,0,0,0,0,0,0,0,0,0,0,0,0,0,0,0,0,0,0,0,0,0,0,0,0,0,0,0,0,0,0,0,0.0494,0.0495,0,0.0537,0.0536,0.0536,0.0576,0.0577,0.0578,0.0579,0.0669,0.067,0.0671,0,0,0,0,0,0,0,0,0,0,0,0,0,0.0425,0.0426,0.0494,0.0495,0.0497,0.0537,0.0536,0.0536,0.0575,0.0577,0.0578,0.058,0.0669,0.067,0.0672,0,0,0,0,0,0,0,0,0,0,0,0,0,0.0452,0.0426,0.0494,0.0527,0.0531,0.0537,0.0536,0.0536,0.0575,0.0577,0.0579,0.0581,0.0668,0.067,0.0672,0.0645,0,0,0.0677,0.0678,0,0,0,0,0,0,0,0,0.0451,0.0453,0.0521,0.0525,0.053,0.056,0.0546,0.0578,0.0575,0.0549,0.0579,0.0582,0.0641,0.0645,0.0636,0.0649,0.0653,0.0677,0.0679,0.0679,0.068,0,0,0,0,0,0,0,0.0449,0.0452,0.0502,0.0522,0.0528,0.0534,0.0539,0.0551,0.0578,0.0552,0.0557,0.0575,0.0643,0.0634,0.0639,0.0654,0.0677,0.0679,0.068,0.0681,0.0819,0.0822,0,0,0,0,0,0,0.046,0.045,0.0501,0.0504,0.0504,0.0534,0.0539,0.0541,0.0577,0.0587,0.0573,0.0576,0.063,0.0637,0.0642,0.076,0.0679,0.0681,0.0682,0.0817,0.082,0.0823,0,0,0,0,0,0,0.0458,0.0463,0.0499,0.0486,0.0492,0.0534,0.0536,0.0542,0.0572,0.0595,0.0604,0.0604,0.0632,0.064,0.0741,0.0759,0.0682,0.0683,0.0814,0.0818,0.0821,0.0902,0,0,0,0,0,0,0.0455,0.0461,0.0464,0.0486,0.0494,0.052,0.0535,0.0541,0.0582,0.0588,0.0623,0.0631,0.0634,0.0738,0.0742,0.076,0.0685,0.0811,0.0816,0.082,0.0896,0.0908,0.0918,0,0,0,0,0,0.0452,0.0455,0.0463,0.047,0.0496,0.0521,0.0524,0.0555,0.0582,0.059,0.0668,0.0632,0.077,0.0744,0.0747,0.0765,0.0808,0.0814,0.082,0.0891,0.0906,0.0918,0,0,0,0,0,0,0.0433,0.046,0.047,0.0482,0.0508,0.0532,0.0548,0.0572,0.063,0.0659,0.0682,0.0697,0.0784,0.0774,0.0744,0.0822,0.0774,0.0781,0.0827,0.0841,0.0852,0.0814,0.0686,0,0,0,0,0,0.0428,0.044,0.0465,0.0482,0.0493,0.0524,0.0542,0.057,0.0626,0.0651,0.0692,0.0743,0.0798,0.0827,0.0861,0.0909,0.0871,0.0919,0.0931,0.094,0.0915,0.0899,0.0905,0.0842,0.0842,0.0842,0,0,0.0423,0.0449,0.0451,0.048,0.05,0.0521,0.0538,0.0581,0.0625,0.0654,0.0741,0.0789,0.0826,0.0896,0.0928,0.0897,0.0947,0.0947,0.0955,0.0924,0.0905,0.0911,0.0916,0.0846,0.0845,0.0845,0,0,0.0425,0.0444,0.0448,0.0475,0.0525,0.0542,0.0565,0.0611,0.0657,0.0756,0.0792,0.0861,0.0945,0.096,0.0984,0.1072,0.1014,0.1089,0.1105,0.1092,0.1095,0.1098,0.1084,0.1084,0.1085,0.1085,0.1085,0,0.0418,0.044,0.0456,0.0481,0.0515,0.0558,0.0583,0.0627,0.0715,0.0767,0.0805,0.0935,0.0964,0.1027,0.1071,0.1089,0.108,0.1051,0.1102,0.1104,0.1105,0.1089,0.1089,0.109,0.1089,0.1089,0.1088,0,0.0429,0.0453,0.0469,0.0509,0.0534,0.0578,0.0635,0.0691,0.0772,0.0828,0.0943,0.0999,0.1066,0.1088,0.1119,0.1143,0.1137,0.1123,0.1057,0.1115,0.1097,0.1095,0.1096,0.1095,0.1093,0.1092,0,0,0.0399,0.0458,0.047,0.0498,0.0566,0.0591,0.0668,0.0745,0.0815,0.091,0.0989,0.109,0.1119,0.1145,0.1168,0.1157,0.1178,0.1154,0.1151,0.1121,0.1159,0.1072,0.106,0.1184,0.1184,0.1183,0.1151,0,0.0409,0.0458,0.0488,0.0544,0.0569,0.0635,0.0706,0.0789,0.0881,0.0968,0.1033,0.1128,0.1142,0.1192,0.1184,0.1185,0.1173,0.1187,0.1121,0.1119,0.1018,0.1054,0.1182,0.1149,0.1149,0.1148,0.1148,0,0.041,0.045,0.0504,0.0579,0.0598,0.0654,0.0769,0.0843,0.0963,0.1037,0.1112,0.1165,0.1198,0.1196,0.1185,0.1204,0.1184,0.1166,0.1165,0.1039,0.1026,0.1075,0.1143,0.1143,0.1144,0.1144,0.1144,0,0.0387,0.0459,0.0512,0.0543,0.0633,0.0699,0.0772,0.089,0.0967,0.1086,0.1141,0.1189,0.1233,0.1204,0.1175,0.12,0.1126,0.1152,0.1045,0.104,0.1089,0.1086,0.1116,0.1116,0.1116,0.1116,0.1116,0,0.0388,0.0427,0.0526,0.056,0.066,0.0724,0.0845,0.0926,0.1033,0.1091,0.1186,0.1176,0.124,0.1208,0.1168,0.1082,0.1119,0.1034,0.1018,0.1132,0.1134,0.1089,0.1086,0.1114,0.1115,0.1115,0.1115,0,0.0349,0.0413,0.0475,0.0594,0.0654,0.0737,0.0893,0.0955,0.1073,0.1133,0.1171,0.1204,0.1154,0.1162,0.1106,0.1077,0.0995,0.0947,0.1055,0.1048,0.0931,0.0934,0.0861,0.0857,0.0854,0.0852,0.0849,0,0.0334,0.0365,0.0501,0.0564,0.0638,0.0774,0.0856,0.0984,0.1008,0.1086,0.1061,0.1085,0.1082,0.0939,0.0937,0.0879,0.0862,0.0861,0.0914,0.0909,0.0902,0.0909,0.0915,0.0845,0.0844,0.0843,0.0842,0,0.0302,0.036,0.0415,0.0543,0.0648,0.0742,0.0845,0.0844,0.0938,0.1042,0.0962,0.0954,0.0889,0.0842,0.0823,0.0757,0.0892,0.0831,0.0838,0.0888,0.0889,0.0886,0.0896,0.0832,0.0834,0.0834,0.0835,0,0.0288,0.032,0.0404,0.0505,0.0628,0.0672,0.0731,0.0741,0.0792,0.0858,0.0785,0.0789,0.0827,0.0766,0.0688,0.0683,0.07,0.0727,0.0741,0.0753,0.0732,0.0719,0.058,0,0,0,0,0,0.0277,0.0294,0.0362,0.0452,0.0554,0.0625,0.0698,0.0725,0.0774,0.0709,0.0769,0.0691,0.066,0.0616,0.059,0.0623,0.0687,0.0591,0.0723,0.0775,0.0787,0.0773,0,0,0,0,0,0,0.0271,0.0325,0.033,0.0387,0.0431,0.0525,0.0565,0.0588,0.054,0.06,0.0555,0.0669,0.0601,0.0664,0.0577,0.058,0.0657,0.0612,0.0611,0.0768,0.0779,0.0788,0.0778,0,0,0,0,0]},{"header":{"parameterUnit":"m.s-1","parameterCategory":2,"la1":30.2991,"la2":30.254,"lo1":-89.0895,"lo2":-89.0444,"dy":0.0017,"dx":0.0017,"nx":28,"ny":28,"refTime":"2023-10-08T21:00:00:Z","depth":"4","parameterNumber":3,"parameterNumberName":"V-component_of_CURRENTS"},"data":[0,0,0,0,0,0,0,0,0,0,0,0,0,0,0,0,0,0,0,0,0,0,0,0,0,0,0,0,0,0,0,0,0,0,0,0,0,0,0,0,0,0,0,0,0,0,0,0,0,0,0,0,0,0,0,0,0,0,0.0196,0.0196,0,0.0173,0.0173,0.0173,0.0182,0.0182,0.0183,0.0184,0.012,0.0117,0.0115,0,0,0,0,0,0,0,0,0,0,0,0,0,0.0214,0.0213,0.0196,0.0196,0.0195,0.0173,0.0173,0.0173,0.0182,0.0182,0.0183,0.0184,0.012,0.0118,0.0115,0,0,0,0,0,0,0,0,0,0,0,0,0,0.0199,0.0213,0.0196,0.0198,0.0198,0.0173,0.0173,0.0172,0.0181,0.0182,0.0183,0.0184,0.0121,0.0118,0.0115,0.0073,0,0,0.0104,0.0102,0,0,0,0,0,0,0,0,0.02,0.0198,0.0198,0.0198,0.0198,0.0183,0.0156,0.0138,0.0181,0.0186,0.0184,0.0185,0.0137,0.0132,0.0124,0.007,0.0067,0.0104,0.0102,0.01,0.0099,0,0,0,0,0,0,0,0.0201,0.0199,0.0185,0.0198,0.0198,0.019,0.0189,0.0152,0.0154,0.0186,0.0187,0.0186,0.0137,0.0128,0.0123,0.0066,0.0104,0.0101,0.0098,0.0097,-0.0038,-0.0039,0,0,0,0,0,0,0.0207,0.02,0.0186,0.0185,0.0203,0.0189,0.0188,0.0185,0.0156,0.0153,0.0186,0.0187,0.0133,0.0127,0.0121,0.0061,0.01,0.0097,0.0095,-0.0036,-0.0038,-0.004,0,0,0,0,0,0,0.0207,0.0206,0.0187,0.0193,0.019,0.0188,0.0185,0.0185,0.0184,0.0156,0.0153,0.0187,0.0134,0.0126,0.0075,0.0059,0.0095,0.0092,-0.0035,-0.0037,-0.0039,-0.0052,0,0,0,0,0,0,0.0208,0.0206,0.0207,0.0193,0.019,0.0175,0.0184,0.0183,0.0182,0.0184,0.0156,0.0151,0.0134,0.008,0.0071,0.0055,0.0089,-0.0033,-0.0036,-0.0038,-0.005,-0.0055,-0.0059,0,0,0,0,0,0.0208,0.021,0.0207,0.0206,0.0192,0.0175,0.0172,0.0173,0.0182,0.0177,0.0145,0.0152,0.0057,0.0075,0.0065,0.0048,-0.0031,-0.0035,-0.0038,-0.0048,-0.0054,-0.0059,0,0,0,0,0,0,0.0217,0.021,0.0208,0.0207,0.0192,0.0177,0.0176,0.0174,0.0147,0.0147,0.0125,0.0116,0.0063,0.0053,0.0075,-0.0,0.0017,0.0011,0.0012,0.0007,0.0002,0.0021,0.0086,0,0,0,0,0,0.0219,0.0221,0.0205,0.0204,0.0198,0.0186,0.0181,0.0177,0.0153,0.0145,0.0119,0.0085,0.0039,0.0023,-0.0019,-0.0059,-0.0062,-0.0075,-0.008,-0.0083,-0.0076,-0.0111,-0.0117,-0.0051,-0.0051,-0.0051,0,0,0.022,0.0219,0.0219,0.0206,0.0197,0.0184,0.0185,0.0176,0.0163,0.0138,0.0106,0.0062,0.002,-0.0032,-0.0053,-0.0037,-0.0104,-0.0087,-0.009,-0.0081,-0.0115,-0.0121,-0.0127,-0.0053,-0.0053,-0.0052,0,0,0.0223,0.0223,0.0221,0.0211,0.0198,0.0188,0.0186,0.0164,0.0152,0.0106,0.008,0.0029,-0.003,-0.0064,-0.0089,-0.0143,-0.0135,-0.0154,-0.0151,-0.0185,-0.019,-0.0195,-0.0201,-0.0206,-0.0145,-0.0145,-0.0145,0,0.0224,0.0223,0.0216,0.021,0.0203,0.0191,0.018,0.0162,0.0123,0.01,0.0096,-0.0012,-0.0045,-0.011,-0.013,-0.0151,-0.0159,-0.0125,-0.0189,-0.0193,-0.0198,-0.0203,-0.0209,-0.0146,-0.0146,-0.0146,-0.0146,0,0.0221,0.022,0.0218,0.0208,0.0196,0.0187,0.0161,0.0141,0.0121,0.0092,0.0019,-0.0039,-0.0095,-0.0121,-0.0143,-0.0196,-0.0188,-0.0197,-0.0169,-0.0205,-0.0209,-0.0214,-0.0147,-0.0147,-0.0147,-0.0146,0,0,0.0223,0.0218,0.0218,0.0214,0.0196,0.0185,0.0159,0.0123,0.0104,0.0048,0.0009,-0.0081,-0.0108,-0.0138,-0.0174,-0.0204,-0.0246,-0.0209,-0.021,-0.0202,-0.0303,-0.0268,-0.027,-0.0267,-0.0268,-0.0269,-0.029,0,0.0221,0.0219,0.0212,0.0201,0.0194,0.0175,0.0152,0.0116,0.0079,0.0036,-0.0031,-0.0084,-0.0114,-0.0142,-0.0183,-0.024,-0.0262,-0.0238,-0.028,-0.028,-0.0235,-0.0277,-0.0273,-0.0294,-0.0295,-0.0296,-0.0297,0,0.0217,0.0219,0.0216,0.02,0.0194,0.0184,0.015,0.0128,0.0065,0.0034,-0.0028,-0.0075,-0.0142,-0.0154,-0.0249,-0.0232,-0.0264,-0.0298,-0.0299,-0.0263,-0.0256,-0.0255,-0.0306,-0.0306,-0.0305,-0.0304,-0.0304,0,0.0226,0.0217,0.0221,0.0217,0.0198,0.0188,0.0172,0.0123,0.0109,0.0041,0.0025,-0.0072,-0.0106,-0.0178,-0.0239,-0.025,-0.0324,-0.0347,-0.0341,-0.0338,-0.0353,-0.0348,-0.04,-0.0399,-0.0399,-0.0399,-0.0399,0,0.0226,0.0225,0.0229,0.0231,0.023,0.0203,0.0193,0.0161,0.0124,0.0104,0.0035,-0.0003,-0.0114,-0.0168,-0.0233,-0.0294,-0.0317,-0.0343,-0.0348,-0.0359,-0.0354,-0.0356,-0.0351,-0.04,-0.04,-0.04,-0.04,0,0.0227,0.0235,0.0241,0.0236,0.0239,0.0237,0.0232,0.0221,0.0187,0.0164,0.0151,0.0052,-0.0034,-0.0114,-0.0228,-0.0268,-0.0337,-0.0342,-0.032,-0.0323,-0.0331,-0.0326,-0.0363,-0.0362,-0.0361,-0.0361,-0.036,0,0.0227,0.0236,0.0258,0.0275,0.0277,0.028,0.0286,0.0258,0.0247,0.0192,0.0177,0.0098,0.0029,-0.0097,-0.0197,-0.0297,-0.0308,-0.0324,-0.0362,-0.0329,-0.0331,-0.0327,-0.0324,-0.0359,-0.0359,-0.0359,-0.0358,0,0.0224,0.0243,0.0252,0.0296,0.0316,0.033,0.0329,0.032,0.0283,0.028,0.02,0.0118,0.0028,-0.0102,-0.0151,-0.0234,-0.0316,-0.0317,-0.032,-0.0357,-0.0325,-0.0326,-0.0324,-0.0356,-0.0356,-0.0356,-0.0357,0,0.0227,0.0238,0.0269,0.0294,0.0345,0.0351,0.0341,0.0319,0.0307,0.0249,0.0219,0.0113,0.0049,-0.0068,-0.0132,-0.019,-0.0228,-0.025,-0.0257,-0.0261,-0.0228,-0.0172,-0.0163,0,0,0,0,0,0.0228,0.0233,0.0262,0.028,0.0336,0.036,0.0364,0.0344,0.0318,0.0278,0.025,0.0165,0.0039,-0.0041,-0.0096,-0.0138,-0.0242,-0.0204,-0.0272,-0.0341,-0.0344,-0.032,0,0,0,0,0,0,0.0225,0.0252,0.0251,0.0278,0.0298,0.0336,0.0343,0.0312,0.0278,0.0251,0.0177,0.0169,0.0036,0.008,-0.0091,-0.0112,-0.016,-0.0256,-0.0257,-0.034,-0.0342,-0.0345,-0.0321,0,0,0,0,0]}]]